Temperature
-10 -11 -11 -12 -12 -13 -13 -14 -14 -14 -14 -14 -14 -14 -14 -14 -14 -13 -12 -12 -11 -10 -9 -9 -9 -8 -8 -7 -7 -7 -6 -6 -6 -5 -5 -3 -1 1 4 4 6 7 8
-11 -11 -12 -12 -13 -13 -14 -14 -14 -14 -14 -14 -14 -14 -14 -14 -13 -13 -12 -11 -10 -10 -9 -9 -8 -8 -8 -7 -7 -7 -6 -6 -5 -5 -4 -3 -1 0 2 4 4 5 7
-11 -11 -12 -12 -13 -14 -14 -14 -14 -14 -14 -14 -14 -14 -14 -13 -13 -12 -11 -10 -10 -10 -9 -9 -9 -9 -8 -8 -8 -7 -6 -5 -5 -4 -4 -3 -1 -0 1 2 3 3 5
-11 -11 -11 -12 -13 -13 -14 -14 -14 -14 -14 -14 -14 -13 -13 -13 -12 -11 -10 -10 -10 -10 -9 -9 -9 -9 -9 -9 -8 -8 -7 -6 -4 -4 -3 -2 -1 -0 0 1 1 2 4
-11 -11 -12 -12 -13 -13 -13 -14 -14 -14 -13 -13 -13 -13 -13 -12 -11 -10 -10 -10 -10 -10 -10 -9 -9 -9 -10 -9 -9 -8 -8 -7 -5 -4 -3 -2 -1 -1 0 0 1 2 3
-10 -11 -12 -12 -13 -14 -14 -14 -13 -13 -13 -13 -13 -13 -12 -11 -10 -10 -11 -11 -10 -10 -10 -10 -10 -10 -10 -10 -9 -9 -8 -8 -7 -5 -4 -3 -2 -1 -1 0 1 1 3
-10 -11 -12 -12 -13 -14 -14 -13 -13 -13 -13 -13 -13 -13 -12 -11 -10 -11 -11 -11 -11 -11 -11 -10 -10 -10 -10 -10 -10 -9 -9 -8 -8 -8 -6 -5 -4 -3 -2 -0 1 2 3
-10 -11 -12 -12 -13 -14 -14 -13 -13 -13 -13 -14 -14 -13 -12 -12 -11 -12 -12 -12 -11 -11 -11 -11 -11 -11 -10 -11 -10 -10 -9 -9 -8 -8 -7 -6 -5 -4 -2 -1 1 2 3
-10 -11 -12 -12 -13 -13 -13 -13 -13 -13 -14 -14 -14 -13 -13 -12 -12 -12 -13 -12 -12 -12 -12 -12 -12 -12 -11 -11 -10 -11 -10 -9 -9 -8 -7 -7 -6 -4 -3 -1 -0 1 3
-10 -11 -11 -12 -13 -13 -13 -13 -13 -14 -14 -14 -14 -13 -13 -13 -13 -12 -13 -13 -13 -13 -13 -13 -12 -12 -12 -12 -12 -12 -11 -10 -9 -8 -8 -7 -6 -5 -4 -2 -1 1 2
-10 -10 -11 -12 -12 -13 -13 -13 -13 -14 -14 -14 -13 -13 -13 -13 -13 -12 -13 -13 -13 -14 -14 -14 -13 -13 -13 -13 -13 -13 -12 -11 -10 -9 -9 -8 -7 -5 -4 -3 -2 -0 2
-9 -10 -11 -11 -12 -13 -13 -13 -13 -14 -14 -13 -13 -13 -13 -13 -13 -13 -13 -13 -14 -14 -14 -14 -14 -14 -14 -13 -13 -13 -12 -11 -10 -10 -9 -9 -8 -7 -5 -3 -3 -1 1
-8 -9 -10 -11 -12 -12 -13 -14 -14 -13 -13 -13 -13 -13 -13 -13 -13 -14 -13 -14 -14 -14 -14 -14 -14 -14 -13 -13 -13 -12 -11 -11 -11 -11 -10 -10 -10 -9 -6 -4 -3 -2 -0
-8 -9 -9 -10 -11 -12 -12 -13 -14 -14 -13 -13 -13 -13 -13 -13 -13 -13 -14 -14 -14 -14 -14 -14 -14 -14 -14 -13 -13 -13 -12 -12 -12 -12 -11 -10 -10 -9 -7 -5 -3 -2 -1
-8 -8 -9 -10 -10 -11 -12 -12 -13 -13 -13 -13 -13 -13 -13 -13 -13 -13 -13 -14 -14 -14 -14 -14 -14 -14 -14 -14 -14 -14 -13 -13 -12 -12 -11 -11 -10 -10 -9 -7 -5 -3 -1
-8 -8 -9 -10 -10 -10 -11 -11 -12 -13 -13 -13 -13 -13 -13 -13 -13 -13 -13 -14 -14 -14 -14 -14 -15 -15 -15 -15 -15 -15 -14 -14 -13 -12 -12 -12 -11 -10 -10 -9 -8 -6 -5
-8 -8 -9 -9 -10 -10 -10 -11 -11 -11 -11 -12 -12 -13 -13 -13 -13 -13 -14 -14 -14 -14 -14 -14 -14 -15 -15 -15 -15 -15 -15 -14 -14 -13 -13 -12 -12 -11 -10 -10 -9 -8 -8
-8 -8 -8 -9 -9 -10 -10 -10 -11 -11 -11 -11 -11 -12 -12 -13 -13 -14 -14 -14 -13 -14 -14 -14 -14 -14 -14 -14 -15 -15 -14 -14 -14 -14 -13 -13 -12 -12 -12 -11 -11 -10 -9
-7 -8 -8 -9 -9 -9 -10 -10 -10 -10 -10 -10 -10 -11 -11 -12 -12 -13 -13 -13 -13 -13 -14 -14 -14 -14 -14 -14 -14 -14 -14 -14 -14 -14 -14 -13 -13 -12 -12 -12 -12 -11 -10
-7 -8 -8 -8 -9 -9 -9 -10 -10 -10 -10 -10 -10 -10 -11 -11 -11 -11 -12 -13 -13 -13 -13 -13 -13 -13 -13 -13 -14 -14 -14 -14 -14 -14 -14 -14 -13 -13 -13 -13 -12 -12 -12
-7 -7 -7 -8 -8 -8 -8 -9 -10 -10 -10 -10 -10 -10 -11 -11 -11 -11 -11 -12 -12 -13 -13 -13 -13 -13 -13 -13 -13 -13 -13 -13 -13 -13 -13 -14 -14 -13 -13 -13 -13 -13 -13
-6 -6 -6 -7 -7 -7 -8 -8 -9 -10 -10 -10 -11 -11 -11 -11 -11 -11 -11 -11 -11 -11 -12 -12 -12 -12 -12 -12 -13 -13 -13 -13 -13 -13 -13 -13 -13 -14 -14 -13 -13 -13 -13
-6 -6 -6 -6 -6 -6 -6 -7 -8 -9 -10 -10 -11 -12 -11 -11 -11 -11 -11 -10 -10 -10 -10 -11 -11 -12 -12 -12 -12 -12 -12 -12 -13 -13 -13 -13 -13 -13 -13 -13 -13 -13 -13
-5 -5 -5 -5 -5 -6 -6 -6 -7 -8 -8 -9 -11 -11 -12 -12 -12 -11 -11 -10 -10 -10 -10 -10 -10 -10 -11 -11 -12 -12 -12 -12 -12 -12 -13 -13 -13 -13 -13 -13 -14 -14 -14
-5 -5 -5 -5 -5 -5 -6 -6 -6 -7 -7 -8 -9 -10 -11 -12 -12 -12 -11 -11 -10 -10 -10 -9 -9 -9 -10 -10 -11 -11 -11 -12 -12 -12 -12 -12 -13 -13 -13 -13 -13 -14 -14
-5 -5 -5 -5 -5 -6 -6 -6 -6 -7 -7 -8 -8 -9 -11 -11 -12 -12 -11 -11 -11 -10 -10 -9 -9 -9 -9 -9 -9 -10 -11 -11 -12 -12 -12 -12 -12 -13 -13 -13 -13 -13 -14
Wind_Speed
9 9 10 11 11 12 10 11 12 14 16 14 14 14 15 15 12 12 13 14 14 14 13 13 13 11 9 8 9 9 10 11 15 14 11 12 14 13 11 10 12 13 14
10 10 10 11 10 11 12 12 15 13 15 16 16 15 16 16 14 14 15 14 14 14 13 12 11 9 9 8 8 9 10 11 13 16 12 11 13 11 9 9 10 12 11
10 10 11 11 11 12 12 12 14 13 14 16 15 16 17 18 18 16 14 13 12 11 10 8 8 10 10 9 9 8 9 10 10 12 11 9 9 8 8 8 10 11 12
10 10 10 11 12 12 11 11 12 13 13 15 16 18 19 20 17 12 9 6 5 6 7 8 9 9 12 12 9 10 11 11 9 8 9 8 7 6 5 5 8 8 10
10 11 12 12 12 12 12 12 12 13 14 14 17 18 20 18 13 10 9 10 9 9 10 10 11 14 20 16 12 11 12 11 10 7 5 5 4 3 3 3 6 6 8
9 11 12 12 13 13 13 12 13 14 14 14 15 17 19 18 23 27 19 13 11 11 11 11 11 11 17 22 22 21 18 14 12 10 8 6 5 4 4 3 2 4 6
9 10 11 12 13 13 14 13 13 13 13 13 14 16 17 21 26 26 24 14 12 12 12 11 13 15 13 8 16 20 19 21 19 12 10 9 7 7 7 5 3 2 4
9 10 11 11 12 12 12 11 11 10 11 10 11 14 15 21 26 24 22 13 11 12 12 12 11 13 15 14 12 11 11 13 16 11 10 10 10 9 6 6 5 5 5
9 11 11 11 11 11 12 11 9 9 8 9 10 12 14 18 26 23 19 9 10 11 13 14 14 11 23 23 16 14 13 12 17 21 19 17 18 18 13 5 4 4 3
10 11 11 11 11 10 11 10 8 8 9 10 11 10 12 13 23 23 17 9 10 10 11 13 19 20 24 24 15 14 15 13 14 15 15 16 14 14 16 9 5 3 2
9 9 10 10 10 9 10 8 9 9 9 9 10 10 10 14 19 23 21 8 10 10 10 10 12 23 24 24 20 15 18 15 12 12 11 11 10 10 10 10 7 4 3
8 9 9 9 9 10 9 9 8 8 7 8 8 9 9 10 14 18 23 20 16 11 10 8 12 22 23 24 19 21 23 18 11 11 11 11 11 11 11 11 10 7 4
8 8 8 8 8 8 7 8 8 7 5 6 7 7 8 8 9 16 19 20 20 10 9 17 20 22 20 17 23 25 19 13 12 12 12 11 11 11 11 10 10 8 7
8 8 7 7 7 7 8 8 7 7 6 5 6 6 7 8 7 5 5 7 12 11 9 14 19 21 18 18 18 16 13 13 12 11 12 12 12 11 11 11 10 8 6
7 7 8 8 7 6 7 7 8 6 9 8 5 5 5 6 9 14 10 7 5 8 8 8 9 10 12 12 12 12 12 12 13 12 12 12 13 13 12 12 11 10 9
6 7 6 6 6 7 6 7 12 13 16 16 15 13 9 12 14 14 14 15 16 17 10 7 9 9 10 11 11 11 11 12 12 12 12 12 12 13 13 12 11 12 12
5 6 5 6 6 7 7 7 9 11 15 15 16 16 15 15 15 15 14 13 14 13 6 5 6 7 7 8 8 8 9 9 9 10 11 11 11 12 12 12 13 12 12
6 7 7 5 6 6 6 7 7 9 10 9 12 15 15 15 15 14 13 10 7 6 3 4 5 5 5 5 6 6 7 7 7 8 9 10 10 11 11 12 12 13 12
5 5 5 5 5 6 6 6 7 9 9 10 9 10 14 14 13 13 10 4 4 4 4 4 4 4 4 5 5 5 5 6 6 6 7 8 9 9 10 11 11 17 14
4 9 8 5 6 7 6 6 8 9 9 9 10 10 9 7 6 8 6 5 5 5 5 5 5 4 4 4 4 4 5 5 6 6 5 6 7 7 8 10 10 10 11
4 6 10 7 5 6 5 6 7 8 10 10 10 13 18 9 8 9 8 7 6 6 6 5 5 5 4 4 3 4 4 4 4 4 5 5 5 5 6 7 8 9 9
3 4 4 5 5 6 6 6 6 8 10 11 10 11 20 11 9 8 8 8 7 6 6 6 6 5 4 5 4 4 4 4 3 3 4 4 4 4 4 5 6 7 8
3 4 4 4 5 8 7 6 6 7 9 10 10 10 11 11 12 12 11 10 8 7 9 9 7 6 10 11 11 7 6 5 4 3 2 2 2 3 3 4 5 5 6
2 3 4 4 5 5 6 6 7 8 9 10 10 10 11 11 11 13 13 12 10 10 10 10 10 11 13 13 13 14 14 14 11 8 6 3 2 0 1 2 3 4 4
1 2 3 4 5 5 6 6 7 8 10 10 10 11 11 12 12 12 12 11 13 12 13 12 11 13 16 18 17 16 17 17 16 13 11 6 4 3 2 1 2 2 2
1 1 3 3 4 4 5 6 7 8 9 10 10 10 11 11 12 12 12 11 13 13 14 15 14 15 17 18 20 22 22 22 20 19 15 10 6 5 5 3 3 3 3
Wind_Direction
322 315 319 318 318 319 320 320 321 319 319 319 319 317 314 310 306 304 301 300 299 299 299 300 299 296 291 285 281 277 273 268 273 280 281 284 284 285 293 301 309 312 306
321 321 323 321 319 320 321 320 321 317 319 321 320 317 315 314 308 302 298 298 294 295 300 304 309 319 315 306 297 289 284 273 268 275 278 276 275 276 284 293 303 300 294
326 329 327 325 325 324 322 320 320 320 321 322 323 321 320 317 310 301 292 287 285 290 301 319 340 353 348 336 327 328 314 297 270 261 266 267 268 265 269 275 279 282 287
338 333 333 332 329 325 322 320 322 324 325 326 327 327 326 323 318 314 310 312 322 337 352 354 353 6 0 348 348 348 338 331 311 273 257 255 259 258 245 241 256 271 279
336 340 339 335 331 330 329 327 328 332 333 329 331 333 334 336 355 26 31 37 32 20 11 3 358 12 12 5 7 5 356 355 353 338 303 269 258 263 253 234 235 263 273
334 336 336 338 337 336 334 337 338 336 333 334 335 337 341 347 24 48 47 34 27 18 9 1 359 3 15 10 9 13 10 8 9 4 356 347 346 351 341 315 245 235 250
333 333 336 336 336 336 339 341 341 337 337 339 339 343 345 350 25 40 39 31 21 14 6 1 6 0 16 6 3 10 8 10 14 12 2 353 344 347 336 315 307 247 253
333 334 335 336 334 334 338 341 339 336 339 339 339 347 349 356 20 36 32 21 15 10 4 358 359 353 8 20 3 1 4 3 6 9 5 355 349 351 332 295 293 295 273
341 339 337 337 337 339 342 341 338 336 335 339 347 350 352 351 9 30 35 8 11 5 4 1 5 1 9 18 12 3 5 2 2 6 10 7 3 359 3 336 293 247 233
344 339 338 342 341 341 342 339 341 340 343 349 353 353 350 347 4 22 40 24 12 7 4 0 3 13 11 17 16 6 9 2 355 356 360 0 357 354 2 359 331 291 252
337 338 343 344 342 348 342 339 344 346 341 344 351 352 349 356 4 16 31 42 22 9 7 359 359 12 13 16 18 13 13 10 356 355 356 357 357 356 353 349 338 311 290
334 339 340 341 349 357 338 338 341 342 338 342 350 354 349 346 360 13 22 29 33 17 2 356 4 14 14 15 17 16 14 12 3 360 1 1 360 356 350 346 341 339 344
335 335 333 338 343 344 337 335 340 345 341 347 353 353 347 344 343 7 17 20 23 23 5 13 14 16 14 11 14 17 14 9 7 4 0 356 352 352 354 355 355 353 18
333 330 333 340 342 340 347 346 341 342 342 338 336 336 333 336 328 325 341 7 15 19 9 7 14 14 16 13 13 13 12 11 12 4 357 352 354 1 10 11 11 6 27
331 330 333 344 334 335 343 342 345 332 355 354 333 317 315 319 342 1 9 4 2 15 11 6 8 9 11 10 10 11 11 11 11 6 4 1 3 7 14 17 23 33 46
338 332 325 332 338 338 329 333 351 355 357 357 353 352 345 346 350 355 1 3 5 12 16 6 9 9 10 8 8 7 10 13 10 9 10 9 7 9 13 19 28 37 43
332 320 317 336 334 334 335 334 332 338 347 350 350 347 348 351 351 348 354 1 1 10 11 351 354 356 356 357 357 359 3 3 6 11 15 14 13 14 16 22 26 33 38
329 326 334 316 318 320 323 323 323 326 329 329 334 337 340 343 346 342 346 355 349 355 340 334 334 339 344 347 350 353 354 359 6 10 13 16 19 22 23 24 28 33 36
327 315 314 315 317 317 321 328 329 327 327 326 325 329 332 328 330 336 342 332 308 312 315 317 317 322 329 335 339 344 348 355 360 4 11 13 17 26 31 30 33 36 41
320 337 343 333 325 326 326 334 338 337 336 334 333 327 317 312 317 320 319 299 289 285 286 291 297 303 311 318 324 334 343 349 356 2 4 8 11 22 30 33 36 39 41
315 325 344 337 321 318 322 333 336 340 342 340 338 338 351 349 327 315 308 298 287 281 276 272 273 280 284 288 294 308 323 331 340 348 356 4 11 18 20 30 36 42 46
312 314 316 315 317 325 344 337 332 340 341 338 339 344 353 352 336 325 313 299 284 273 267 261 258 252 243 250 257 267 279 292 306 322 338 354 9 20 25 29 34 39 45
319 321 325 326 321 341 349 334 339 342 340 335 339 347 349 349 347 344 339 328 307 285 270 259 256 252 250 247 243 234 237 247 248 241 268 315 352 16 33 38 38 42 44
320 325 331 332 332 334 334 337 341 343 342 338 341 344 343 342 341 340 340 338 332 316 290 266 255 252 249 245 240 238 239 245 245 233 220 218 236 296 56 57 55 56 53
326 328 331 331 331 332 333 336 340 342 343 342 342 340 339 339 338 336 335 334 334 332 322 302 272 257 252 246 239 233 237 239 236 227 214 197 194 189 176 151 118 95 82
192 312 319 320 326 328 330 332 333 335 338 339 337 333 334 336 335 333 333 334 335 332 330 327 311 287 265 250 242 237 236 235 232 227 207 190 184 187 181 179 173 153 131
Height
1542 1535 1528 1521 1514 1507 1500 1493 1486 1479 1473 1466 1460 1453 1447 1441 1436 1431 1427 1425 1422 1420 1418 1416 1413 1411 1408 1405 1403 1401 1398 1396 1391 1387 1388 1387 1387 1388 1391 1393 1396 1400 1405
1540 1533 1525 1518 1511 1504 1497 1491 1484 1478 1471 1464 1457 1450 1443 1436 1430 1426 1422 1420 1419 1417 1415 1413 1410 1407 1404 1401 1398 1395 1392 1390 1387 1384 1384 1384 1383 1383 1384 1388 1391 1395 1400
1537 1530 1523 1515 1509 1503 1496 1490 1483 1477 1470 1463 1455 1447 1438 1431 1424 1419 1417 1416 1416 1415 1414 1412 1409 1405 1402 1398 1394 1391 1387 1383 1381 1380 1379 1380 1380 1381 1382 1384 1388 1393 1395
1535 1528 1521 1514 1508 1503 1496 1490 1483 1476 1469 1462 1454 1446 1437 1428 1420 1415 1414 1415 1416 1415 1414 1411 1409 1405 1401 1396 1392 1387 1383 1378 1375 1374 1375 1376 1377 1378 1380 1381 1385 1388 1391
1534 1527 1521 1515 1509 1503 1496 1490 1483 1477 1470 1463 1455 1447 1438 1428 1423 1419 1418 1418 1418 1417 1415 1412 1409 1406 1402 1396 1391 1385 1380 1376 1372 1370 1371 1372 1374 1375 1377 1378 1380 1383 1386
1533 1527 1521 1515 1509 1503 1496 1490 1484 1478 1471 1464 1457 1450 1442 1434 1431 1427 1425 1423 1422 1419 1416 1413 1409 1406 1401 1395 1389 1384 1379 1375 1371 1368 1368 1369 1370 1372 1373 1374 1376 1381 1385
1534 1528 1522 1515 1509 1503 1497 1491 1485 1478 1472 1466 1460 1454 1447 1441 1438 1434 1431 1428 1425 1421 1418 1415 1411 1407 1402 1395 1389 1383 1378 1374 1372 1369 1367 1367 1368 1369 1369 1370 1372 1377 1380
1533 1528 1522 1515 1509 1503 1497 1491 1485 1480 1473 1467 1462 1458 1452 1447 1443 1439 1434 1431 1428 1424 1421 1417 1413 1408 1404 1396 1390 1384 1378 1374 1371 1368 1366 1365 1366 1366 1367 1367 1369 1373 1377
1533 1528 1522 1516 1509 1503 1497 1492 1487 1481 1475 1469 1465 1461 1456 1451 1448 1443 1437 1434 1430 1426 1422 1418 1415 1409 1405 1398 1391 1385 1380 1375 1371 1368 1366 1365 1364 1364 1364 1365 1366 1371 1374
1533 1528 1523 1517 1510 1505 1500 1494 1489 1483 1477 1472 1468 1464 1460 1455 1451 1447 1441 1436 1432 1428 1424 1420 1416 1412 1406 1400 1393 1387 1382 1377 1372 1368 1366 1364 1362 1361 1361 1361 1363 1366 1370
1535 1530 1524 1518 1512 1506 1501 1497 1491 1485 1480 1475 1471 1468 1463 1459 1455 1451 1446 1440 1435 1431 1426 1422 1417 1413 1407 1402 1396 1391 1386 1381 1375 1371 1367 1363 1361 1359 1358 1359 1360 1363 1367
1536 1531 1525 1519 1513 1508 1503 1498 1493 1487 1482 1478 1474 1470 1466 1462 1458 1455 1450 1445 1440 1434 1430 1425 1420 1414 1408 1403 1398 1393 1388 1383 1378 1373 1368 1364 1360 1357 1356 1357 1358 1361 1365
1536 1531 1526 1520 1515 1509 1504 1499 1494 1489 1485 1481 1476 1473 1469 1465 1461 1457 1453 1449 1443 1438 1433 1429 1423 1416 1410 1404 1400 1395 1390 1385 1381 1376 1371 1366 1362 1359 1357 1357 1358 1361 1364
1537 1532 1527 1521 1516 1511 1505 1500 1495 1491 1487 1483 1479 1475 1471 1467 1463 1459 1455 1450 1446 1440 1435 1430 1424 1419 1413 1408 1403 1398 1393 1389 1386 1381 1376 1372 1367 1362 1358 1357 1358 1360 1363
1538 1533 1528 1523 1517 1512 1507 1502 1497 1493 1489 1485 1480 1476 1471 1468 1465 1462 1458 1453 1449 1444 1438 1432 1426 1421 1415 1410 1406 1402 1398 1394 1390 1386 1382 1377 1372 1367 1363 1360 1359 1360 1362
1537 1533 1529 1524 1519 1514 1509 1505 1500 1495 1489 1484 1480 1477 1472 1469 1465 1462 1458 1454 1451 1446 1440 1435 1430 1426 1421 1416 1412 1407 1403 1399 1396 1392 1388 1384 1379 1375 1371 1368 1365 1364 1364
1537 1533 1529 1525 1520 1515 1510 1505 1500 1496 1491 1485 1480 1476 1472 1468 1465 1461 1458 1454 1450 1446 1442 1438 1434 1430 1426 1422 1418 1414 1410 1406 1403 1399 1395 1391 1387 1383 1380 1377 1375 1372 1371
1537 1533 1530 1526 1521 1517 1512 1507 1502 1497 1491 1486 1481 1476 1471 1468 1464 1460 1457 1453 1450 1446 1443 1440 1437 1434 1430 1427 1423 1419 1416 1412 1409 1405 1402 1399 1395 1392 1388 1385 1383 1382 1380
1536 1533 1529 1526 1522 1518 1513 1508 1504 1499 1493 1488 1482 1477 1472 1467 1463 1459 1455 1452 1449 1446 1444 1441 1438 1436 1433 1431 1428 1424 1421 1418 1415 1412 1409 1406 1403 1400 1397 1395 1393 1392 1390
1535 1532 1529 1525 1521 1517 1513 1508 1504 1499 1494 1489 1483 1478 1472 1467 1463 1458 1454 1451 1448 1445 1443 1441 1439 1437 1435 1433 1430 1428 1425 1422 1420 1417 1414 1412 1410 1407 1405 1403 1401 1399 1398
1534 1531 1528 1524 1520 1516 1512 1507 1503 1499 1494 1489 1485 1479 1475 1470 1464 1459 1455 1450 1447 1444 1441 1439 1438 1436 1435 1433 1432 1430 1428 1426 1423 1421 1419 1417 1415 1413 1412 1410 1409 1408 1407
1533 1530 1527 1523 1519 1515 1511 1507 1503 1498 1494 1489 1484 1480 1476 1470 1465 1460 1455 1451 1447 1443 1440 1437 1435 1434 1433 1432 1431 1430 1429 1427 1426 1424 1422 1420 1419 1418 1417 1416 1415 1415 1414
1532 1529 1526 1523 1519 1515 1512 1507 1502 1498 1493 1489 1484 1479 1474 1470 1465 1461 1456 1451 1447 1443 1439 1435 1432 1430 1429 1428 1428 1428 1427 1427 1426 1425 1424 1423 1422 1421 1420 1419 1419 1419 1419
1530 1528 1525 1522 1519 1515 1511 1507 1502 1497 1493 1488 1483 1479 1474 1470 1465 1460 1456 1451 1446 1442 1438 1434 1430 1427 1425 1424 1423 1423 1424 1424 1425 1425 1425 1424 1423 1423 1422 1421 1421 1421 1422
1528 1527 1524 1522 1519 1515 1511 1507 1503 1498 1493 1488 1483 1478 1474 1469 1464 1460 1455 1450 1446 1441 1437 1433 1429 1425 1422 1419 1417 1417 1418 1419 1421 1422 1423 1423 1423 1423 1423 1423 1423 1423 1424
1527 1525 1523 1521 1518 1515 1511 1507 1503 1498 1493 1488 1483 1478 1473 1468 1463 1458 1454 1449 1444 1440 1436 1431 1427 1423 1419 1415 1413 1411 1411 1412 1414 1417 1418 1420 1421 1422 1423 1424 1424 1424 1425